This is the latest recevied weather packets stored in our database for station/object WB6ANP. If no packets are shown the sender has not sent any weather packets the latest 10 day(s).
| Time | Temp. | Humidity | Pressure | Rain* | Wind** | Luminosity | Snow |
|---|---|---|---|---|---|---|---|
| 1777476757 | 14.44° C | 81% | 1016.8 hPa | 0 mm | - | 62 W/m² | - |
| 1777476453 | 14.44° C | 81% | 1016.3 hPa | 0 mm | - | 90 W/m² | - |
| 1777476150 | 14.44° C | 81% | 1016.3 hPa | 0 mm | - | 85 W/m² | - |
| 1777475845 | 14.44° C | 81% | 1016.3 hPa | 0 mm | - | 53 W/m² | - |
| 1777475541 | 14.44° C | 80% | 1016.2 hPa | 0 mm | - | 58 W/m² | - |
| 1777475238 | 14.44° C | 81% | 1015.8 hPa | 0 mm | - | 81 W/m² | - |
| 1777474933 | 14.44° C | 81% | 1015.9 hPa | 0 mm | - | 109 W/m² | - |
| 1777474629 | 14.44° C | 82% | 1016.3 hPa | 0 mm | - | 60 W/m² | - |
| 1777474326 | 14.44° C | 81% | 1016.4 hPa | 0 mm | - | 73 W/m² | - |
| 1777474023 | 14.44° C | 81% | 1016.4 hPa | 0 mm | - | 56 W/m² | - |
| 1777473721 | 14.44° C | 81% | 1016.7 hPa | 0 mm | - | 45 W/m² | - |
| 1777473417 | 14.44° C | 81% | 1016.4 hPa | 0 mm | - | 62 W/m² | - |
| 1777473113 | 14.44° C | 82% | 1016.1 hPa | 0 mm | - | 62 W/m² | - |
| 1777472809 | 14.44° C | 81% | 1016 hPa | 0 mm | - | 55 W/m² | - |
| 1777472506 | 13.89° C | 80% | 1015.9 hPa | 0 mm | - | 69 W/m² | - |
| 1777472203 | 14.44° C | 80% | 1016 hPa | 0 mm | - | 68 W/m² | - |
| 1777471898 | 14.44° C | 80% | 1016.4 hPa | 0 mm | - | 57 W/m² | - |
| 1777471596 | 14.44° C | 81% | 1016.4 hPa | 0 mm | - | 45 W/m² | - |
| 1777471292 | 14.44° C | 82% | 1015.9 hPa | 0 mm | - | 44 W/m² | - |
| 1777470988 | 13.89° C | 82% | 1016.1 hPa | 0 mm | - | 40 W/m² | - |
| 1777470686 | 13.89° C | 82% | 1015.8 hPa | 0 mm | - | 33 W/m² | - |
| 1777470381 | 13.89° C | 81% | 1015.5 hPa | 0 mm | - | 31 W/m² | - |
| 1777470079 | 14.44° C | 81% | 1015.5 hPa | 0 mm | - | 35 W/m² | - |
| 1777469775 | 14.44° C | 82% | 1015.5 hPa | 0 mm | - | 48 W/m² | - |
| 1777469471 | 14.44° C | 81% | 1015.2 hPa | 0 mm | - | 47 W/m² | - |
* Rain latest hour (hover to see other rain measurements)
** Current wind speed in m/s (hover to see current wind gust speed)